EcAMSat
1 43019U 98067NG 20107.66429826 .00009267 00000-0 96742-4 0 9996
2 43019 51.6398 244.8682 0003730 169.4695 190.6380 15.65305628223115
PICSAT
1 43132U 18004X 20107.21526463 .00001332 00000-0 57483-4 0 9995
2 43132 097.4511 178.9301 0007889 272.4477 087.5857 15.24264557125577
AO-92
1 43137U 18004AC 20107.70191091 .00001003 00000-0 44362-4 0 9996
2 43137 97.4497 179.2715 0007487 273.1508 86.8873 15.24005764125635
TianYi 2
1 43155U 18008A 20107.85211043 .00000796 00000-0 50524-4 0 9991
2 43155 97.4505 178.5019 0017724 6.5426 104.9622 15.11551213123617
Zhou Enlai
1 43156U 18008B 20107.86366345 .00001218 00000-0 76359-4 0 9993
2 43156 97.4555 178.3681 0014696 6.4294 104.7923 15.11088870123574
TianYi 6
1 43158U 18008D 20107.80175374 .00001065 00000-0 68089-4 0 9990
2 43158 97.4503 177.4417 0013816 4.2527 135.4705 15.10630033123510
S-Net G
1 43186U 18014G 20107.47773164 .00000265 00000-0 28192-4 0 9994
2 43186 097.6970 016.3116 0012367 074.6230 285.6358 14.96778960120424
S-Net H
1 43187U 18014H 20107.74495676 .00000284 00000-0 29889-4 0 9999
2 43187 97.6968 16.5548 0012365 73.7799 286.4782 14.96779065120462
S-Net J
1 43188U 18014J 20107.74481698 .00000278 00000-0 29282-4 0 9999
2 43188 97.6971 16.5820 0012339 73.8353 286.4225 14.96778792120466
S-Net K
1 43189U 18014K 20107.74521436 .00000294 00000-0 30684-4 0 9991
2 43189 97.6968 16.5507 0012363 73.8301 286.4280 14.96778277119013
FMN 1
1 43192U 18015A 20107.87273008 .00002231 00000-0 91061-4 0 9998
2 43192 97.4325 237.7054 0014454 310.7179 165.8501 15.25386256122515
Shaonian Xing
1 43199U 18015H 20107.81338712 .00001559 00000-0 64074-4 0 9999
2 43199 97.4110 236.0800 0015842 321.9356 183.5938 15.25604931122567
1KUNS-PF
1 43466U 98067NP 20107.73125490 .00121262 16480-4 40297-3 0 9996
2 43466 51.6278 217.8016 0005663 325.8597 34.2043 15.90104407110658
UBAKUSAT
1 43467U 98067NQ 20107.64025040 .00028541 00000-0 21326-3 0 9992
2 43467 51.6328 239.1872 0000343 215.7289 144.3686 15.72466951110377
EnduroSat One
1 43551U 98067NZ 20107.59192119 .00045784 00000-0 28729-3 0 9994
2 43551 51.6347 238.8345 0003963 247.2428 112.8153 15.76278575100600
EQUISat
1 43552U 98067PA 20107.60039042 .00028501 00000-0 22318-3 0 9998
2 43552 51.6350 245.7667 0004525 229.5646 130.4957 15.71343797100476
UiTMSat 1
1 43589U 98067PD 20107.59004039 .00035008 00000-0 25175-3 0 9998
2 43589 51.6322 244.7858 0004285 245.2583 114.7970 15.73251634 96221
Maya 1
1 43590U 98067PE 20107.64653616 .00035048 00000-0 25194-3 0 9992
2 43590 51.6323 244.4227 0004278 245.3412 114.7141 15.73260084 96167
Bhutan 1
1 43591U 98067PF 20107.62398466 .00034868 00000-0 24964-3 0 9993
2 43591 51.6329 244.3287 0004449 246.1503 113.9030 15.73356034 96168
SiriusSat 1
1 43595U 98067PG 20107.71547322 .00031378 00000-0 24468-3 0 9996
2 43595 51.6321 247.9040 0002070 217.8124 142.2729 15.71397961 95309
SiriusSat 2
1 43596U 98067PH 20107.70947866 .00030462 00000-0 23888-3 0 9991
2 43596 51.6328 248.6830 0002409 211.2695 148.8159 15.71279443 95290
Tanusha-3
1 43597U 98067PJ 20107.64577620 .00059661 00000-0 33967-3 0 9993
2 43597 51.6301 239.8184 0002745 269.1127 90.9559 15.78364766 95405
SurfSat
1 43614U 18070B 20107.70094575 .00002656 00000-0 69089-4 0 9996
2 43614 93.0220 129.0719 0013879 206.0967 153.9589 15.38895647 88982
CP-7 DAVE
1 43615U 18070C 20107.59678537 .00002401 00000-0 62752-4 0 9998
2 43615 93.0223 129.0227 0014043 206.1709 153.8837 15.38765607 88964
ELFIN-B
1 43616U 18070D 20107.55877848 .00003689 00000-0 92524-4 0 9990
2 43616 093.0187 128.9319 0014421 208.6748 151.3715 15.39983959088998
ELFIN-A
1 43617U 18070E 20107.53401347 .00003825 00000-0 95450-4 0 9999
2 43617 93.0240 129.3820 0013897 204.7124 155.3467 15.40137968 88993
STARS-Me Mother
1 43640U 98067PQ 20107.68102104 .00014715 00000-0 15619-3 0 9992
2 43640 51.6345 261.2872 0004209 160.9388 199.1765 15.64322629 87059
CubeBel 1
1 43666U 18083E 20107.85745370 .00001040 00000-0 54230-4 0 9997
2 43666 97.4946 134.9179 0013886 209.6637 141.5791 15.18142123 81262
Changshagaoxin
1 43669U 18083H 20107.88074355 .00000725 00000-0 39818-4 0 9995
2 43669 97.4826 133.3204 0010240 199.3857 160.6988 15.17204128 81199
Ten-Koh
1 43677U 18084G 20107.58381294 .00000103 00000-0 16481-4 0 9996
2 43677 97.8740 224.8260 0016119 8.1026 352.0449 14.90268909 79723
PO-101
1 43678U 18084H 20107.89282718 .00000304 00000-0 35950-4 0 9997
2 43678 97.8740 226.3316 0010634 28.6349 331.5456 14.91621385 79849
IRVINE 01
1 43693U 18088D 20107.45709143 .00002393 00000-0 10081-3 0 9993
2 43693 85.0320 118.0492 0018973 152.2929 207.9329 15.22601921 79410
QO-100
1 43700U 18090A 20107.62618979 .00000127 00000-0 00000 0 0 9999
2 43700 0.0234 124.0995 0002655 298.5968 33.7417 1.00272883 5337
Reaktor Hello World
1 43743U 18096AA 20107.80381297 .00001294 00000-0 51044-4 0 9997
2 43743 97.4236 181.9820 0017628 351.7396 146.3121 15.27270669 76984
MinXSS-2
1 43758U 18099A 20107.78163216 -.00000085 00000-0 -24669-5 0 9995
2 43758 97.7099 180.7180 0016467 40.0593 320.1839 14.95622792 74734
AO-95
1 43770U 18099N 20107.66303092 .00000292 00000-0 31886-4 0 9990
2 43770 97.7094 180.1090 0015564 48.0441 312.2103 14.94948765 74684
RANGE-B
1 43772U 18099Q 20107.42315747 .00000716 00000-0 70416-4 0 9999
2 43772 97.7162 180.3128 0014975 37.4271 322.7990 14.95128823 74646
RANGE-A
1 43773U 18099R 20107.65298144 -.00000077 00000-0 -17707-5 0 9993
2 43773 97.7038 179.7869 0014325 36.1950 324.0237 14.94938109 74679
MOVE-II
1 43780U 18099Y 20107.62858348 .00000580 00000-0 57744-4 0 9997
2 43780 97.7098 180.2460 0014605 46.8115 313.4324 14.95341645 74672
SNUSat 2
1 43782U 18099AA 20107.63540564 .00000076 00000-0 12069-4 0 9999
2 43782 97.7092 180.2714 0013611 36.3577 323.8566 14.95223630 74689
SnugLite
1 43784U 18099AC 20107.74160308 .00000644 00000-0 63489-4 0 9990
2 43784 97.7057 180.2195 0016008 42.9268 317.3199 14.95314764 74711
ITASat 1
1 43786U 18099AE 20107.74099002 .00000555 00000-0 55454-4 0 9998
2 43786 97.7110 180.5608 0016072 41.9125 318.3323 14.95294195 74712
EAGLET 1
1 43790U 18099AJ 20107.74869306 .00000692 00000-0 67283-4 0 9990
2 43790 97.7101 180.7957 0014575 46.9806 313.2633 14.95676807 74423
ESEO
1 43792U 18099AL 20107.75488748 .00000440 00000-0 44780-4 0 9998
2 43792 97.7076 180.6558 0014358 43.8848 316.3510 14.95585744 74486
CSIM
1 43793U 18099AM 20107.75023672 .00000978 00000-0 92262-4 0 9994
2 43793 97.7066 180.5982 0013849 42.6768 317.5527 14.95986804 74469
Astrocast 0.1
1 43798U 18099AS 20107.67817763 .00000556 00000-0 54907-4 0 9998
2 43798 97.7093 180.8131 0012973 28.7843 331.4091 14.95846012 74714
JO-97
1 43803U 18099AX 20107.82955692 .00000360 00000-0 37627-4 0 9999
2 43803 97.7072 180.4820 0016177 42.0597 318.1862 14.95465907 74723
Suomi 100
1 43804U 18099AY 20107.62922570 .00000361 00000-0 37721-4 0 9993
2 43804 97.7071 180.2758 0016267 42.8083 317.4401 14.95456411 74708
Al Farabi 2
1 43805U 18099AZ 20107.87585753 .00000748 00000-0 72461-4 0 9998
2 43805 97.7074 180.5855 0016109 42.2056 318.0402 14.95564601 74745
PWSat 2
1 43814U 18099BJ 20107.81888519 .00026617 00000-0 16547-2 0 9992
2 43814 97.7828 187.4346 0006569 73.5263 286.6676 15.09598404 74410
CHOMPTT
1 43855U 18104G 20107.86886225 .00001235 00000-0 50891-4 0 9992
2 43855 85.0377 215.9258 0015407 282.6963 77.2557 15.22873035 74158
